Change the Weather History Date:

Sunday, October 20, 2013

  Actual Average (KHGR) Record (KHGR)
Temperature  
Mean Temperature 50 °F -  
Max Temperature 62 °F 59 °F 72 °F (2001)
Min Temperature 37 °F 41 °F 30 °F (2008)
Degree Days  
Heating Degree Days 16    
Moisture  
Dew Point 40 °F    
Average Humidity 75    
Maximum Humidity 100    
Minimum Humidity 42    
Precipitation  
Precipitation 0.00 in - - ()
Sea Level Pressure  
Sea Level Pressure 30.04 in    
Wind  
Wind Speed 8 mph (West)    
Max Wind Speed 16 mph    
Max Gust Speed 21 mph    
Visibility 10 miles    
Events Snow    
Averages and records for this station are not official NWS values.
T = Trace of Precipitation, MM = Missing Value Source: NWS Daily Summary

Daily Weather History Graph

Daily Weather History Graph

Search for Another Location

Airport or City:

Trip Planner

Search our weather history database for the weather conditions in past years. The results will help you decide how hot, cold, wet, or windy it might be!

Date:

Astronomy

Oct. 20, 2013 Rise Set
Actual Time 7:24 AM EDT 6:23 PM EDT
Civil Twilight 6:57 AM EDT 6:50 PM EDT
Nautical Twilight 6:26 AM EDT 7:21 PM EDT
Astronomical Twilight 5:55 AM EDT 7:52 PM EDT
Moon 7:30 PM EDT (10/20) 8:59 AM EDT (10/20)
Length of Visible Light 11h 52m
Length of Day
10h 58m
Full, 97% of the Moon is Illuminated
Oct 20
Full
Oct 26
Last Quarter
Nov 3
New
Nov 10
First Quarter
Nov 17
Full

Hourly Weather History & Observations

Time (EDT) Temp. Windchill Dew Point Humidity Pressure Visibility Wind Dir Wind Speed Gust Speed Precip Events Conditions
12:15 AM 53.6 °F - 44.6 °F 72% 29.92 in 10.0 mi WNW 11.5 mph - N/A   Clear
12:35 AM 51.8 °F - 42.8 °F 71% 29.93 in 10.0 mi West 16.1 mph - N/A   Clear
12:55 AM 51.8 °F - 41.0 °F 67% 29.94 in 10.0 mi West 11.5 mph 19.6 mph N/A   Scattered Clouds
1:15 AM 51.8 °F - 41.0 °F 67% 29.95 in 10.0 mi WNW 12.7 mph - N/A   Scattered Clouds
1:35 AM 50.0 °F - 41.0 °F 71% 29.96 in 10.0 mi WNW 8.1 mph 16.1 mph N/A   Scattered Clouds
1:55 AM 50.0 °F - 41.0 °F 71% 29.96 in 10.0 mi West 10.4 mph - N/A   Mostly Cloudy
2:15 AM 50.0 °F - 39.2 °F 66% 29.97 in 10.0 mi West 10.4 mph - N/A   Mostly Cloudy
2:35 AM 46.4 °F 43.5 °F 39.2 °F 76% 29.97 in 10.0 mi NW 5.8 mph - N/A   Clear
2:55 AM 48.2 °F - 37.4 °F 66% 29.98 in 10.0 mi WNW 9.2 mph 20.7 mph N/A   Scattered Clouds
3:15 AM 46.4 °F 40.1 °F 37.4 °F 71% 29.98 in 10.0 mi WNW 15.0 mph 18.4 mph N/A   Scattered Clouds
3:35 AM 48.2 °F - 37.4 °F 66% 29.99 in 10.0 mi West 10.4 mph 20.7 mph N/A   Clear
3:55 AM 46.4 °F 41.5 °F 37.4 °F 71% 30.00 in 10.0 mi WNW 10.4 mph 18.4 mph N/A   Scattered Clouds
4:15 AM 46.4 °F 41.1 °F 37.4 °F 71% 30.00 in 10.0 mi WNW 11.5 mph - N/A   Scattered Clouds
4:35 AM 44.6 °F 41.4 °F 37.4 °F 76% 30.00 in 10.0 mi NW 5.8 mph - N/A   Clear
4:55 AM 44.6 °F 42.2 °F 35.6 °F 71% 30.00 in 10.0 mi West 4.6 mph - N/A   Clear
5:15 AM 44.6 °F 41.4 °F 37.4 °F 76% 30.01 in 10.0 mi West 5.8 mph - N/A   Clear
5:35 AM 42.8 °F 41.1 °F 35.6 °F 76% 30.02 in 10.0 mi West 3.5 mph - N/A   Clear
5:55 AM 41.0 °F - 37.4 °F 87% 30.02 in 10.0 mi Calm Calm - N/A   Clear
6:15 AM 41.0 °F 39.0 °F 37.4 °F 87% 30.03 in 10.0 mi SSE 3.5 mph - N/A   Clear
6:35 AM 41.0 °F 39.0 °F 37.4 °F 87% 30.03 in 10.0 mi South 3.5 mph - N/A   Unknown
6:40 AM 37.4 °F 34.9 °F 37.4 °F 100% 30.03 in 10.0 mi South 3.5 mph - N/A Snow Light Snow
6:47 AM 39.2 °F - 39.2 °F 100% 30.04 in 10.0 mi Calm Calm - N/A   Clear
7:55 AM 41.0 °F - 37.4 °F 87% 30.05 in 10.0 mi Calm Calm - N/A   Clear
8:50 AM 46.4 °F 44.3 °F 39.2 °F 76% 30.07 in 10.0 mi SSW 4.6 mph - N/A   Clear
9:46 AM 51.8 °F - 41.0 °F 67% 30.09 in 10.0 mi West 6.9 mph - N/A   Clear
10:52 AM 55.4 °F - 41.0 °F 58% 30.10 in 10.0 mi West 8.1 mph - N/A   Clear
11:50 AM 57.2 °F - 39.2 °F 51% 30.10 in 10.0 mi WNW 10.4 mph - N/A   Clear
12:50 PM 60.8 °F - 39.2 °F 45% 30.09 in 10.0 mi WNW 5.8 mph - N/A   Clear
1:55 PM 60.8 °F - 39.2 °F 45% 30.07 in 10.0 mi NW 10.4 mph 17.3 mph N/A   Clear
2:50 PM 62.6 °F - 39.2 °F 42% 30.06 in 10.0 mi WNW 8.1 mph - N/A   Scattered Clouds
3:50 PM 62.6 °F - 39.2 °F 42% 30.06 in 10.0 mi WNW 5.8 mph - N/A   Clear
4:50 PM 60.8 °F - 37.4 °F 42% 30.06 in 10.0 mi WNW 8.1 mph - N/A   Clear
5:45 PM 59.0 °F - 37.4 °F 45% 30.06 in 10.0 mi WSW 4.6 mph - N/A   Clear
6:45 PM 55.4 °F - 39.2 °F 54% 30.07 in 10.0 mi Variable 4.6 mph - N/A   Clear
7:55 PM 46.4 °F - 42.8 °F 87% 30.09 in 10.0 mi Calm Calm - N/A   Clear
9:00 PM 42.8 °F - 42.8 °F 100% 30.10 in 10.0 mi Calm Calm - N/A   Clear
9:20 PM 42.8 °F - 42.8 °F 100% 30.11 in 10.0 mi Calm Calm - N/A   Clear
9:40 PM 42.8 °F - 42.8 °F 100% 30.12 in 10.0 mi Calm Calm - N/A   Clear
10:00 PM 42.8 °F - 42.8 °F 100% 30.12 in 10.0 mi Calm Calm - N/A   Clear
10:20 PM 41.0 °F - 41.0 °F 100% 30.12 in 10.0 mi Calm Calm - N/A   Clear
10:40 PM 41.0 °F - 41.0 °F 100% 30.12 in 10.0 mi Calm Calm - N/A   Clear
11:00 PM 41.0 °F - 41.0 °F 100% 30.13 in 10.0 mi Calm Calm - N/A   Clear
11:20 PM 41.0 °F - 41.0 °F 100% 30.13 in 10.0 mi Calm Calm - N/A   Clear
11:40 PM 41.0 °F - 41.0 °F 100% 30.13 in 10.0 mi Calm Calm - N/A   Clear